This is the latest recevied weather packets stored in our database for station/object SHLBYV-WX. If no packets are shown the sender has not sent any weather packets the latest 10 day(s).
| Time | Temp. | Humidity | Pressure | Rain* | Wind** | Luminosity | Snow |
|---|---|---|---|---|---|---|---|
| 1778097685 | 11.67° C | 33% | 983.8 hPa | 0 mm | - | - | - |
| 1778096756 | 11.67° C | 36% | 984.2 hPa | 0 mm | - | - | - |
| 1778095872 | 11.67° C | 36% | 984.2 hPa | 0 mm | - | - | - |
| 1778094956 | 11.67° C | 36% | 984.2 hPa | 0 mm | - | - | - |
| 1778094085 | 11.67° C | 36% | 984.2 hPa | 0 mm | - | - | - |
| 1778093155 | 11.67° C | 37% | 983.9 hPa | 0 mm | - | - | - |
| 1778092266 | 11.67° C | 34% | 984 hPa | 0 mm | - | - | - |
| 1778091355 | 11.67° C | 34% | 984 hPa | 0 mm | - | - | - |
| 1778090488 | 11.67° C | 34% | 984 hPa | 0 mm | - | - | - |
| 1778089552 | 11.67° C | 35% | 984.2 hPa | 0 mm | - | - | - |
| 1778088673 | 11.67° C | 35% | 984.6 hPa | 0 mm | - | - | - |
| 1778087756 | 11.67° C | 35% | 984.6 hPa | 0 mm | - | - | - |
| 1778086886 | 11.11° C | 33% | 984.5 hPa | 0 mm | - | - | - |
| 1778085956 | 11.11° C | 37% | 984 hPa | 0 mm | - | - | - |
| 1778085068 | 11.11° C | 37% | 984 hPa | 0 mm | - | - | - |
| 1778084156 | 10.56° C | 37% | 984 hPa | 0 mm | - | - | - |
| 1778083285 | 10.56° C | 37% | 984 hPa | 0 mm | - | - | - |
| 1778082355 | 10° C | 41% | 984.6 hPa | 0 mm | - | - | - |
| 1778081468 | 10° C | 44% | 983.8 hPa | 0 mm | - | - | - |
| 1778080555 | 9.44° C | 44% | 983.8 hPa | 0 mm | - | - | - |
| 1778079692 | 8.89° C | 44% | 983.8 hPa | 0 mm | - | - | - |
| 1778078755 | 9.44° C | 49% | 983.9 hPa | 0 mm | - | - | - |
| 1778077872 | 8.89° C | 49% | 983.8 hPa | 0 mm | - | - | - |
| 1778076955 | 8.33° C | 49% | 983.8 hPa | 0 mm | - | - | - |
| 1778076089 | 7.78° C | 46% | 983.6 hPa | 0 mm | - | - | - |
* Rain latest hour (hover to see other rain measurements)
** Current wind speed in m/s (hover to see current wind gust speed)